This demonstration page uses our WeatherBlox Daily Observations layout. Learn more.

Left ArrowRight Arrow

Hourly Observations for December 17, 2021

Temp ( °F °C ) Dew Point ( °F °C ) Humidity (%) Winds ( mph kmh ) Pressure ( in mb ) Visibility ( mi km ) Precip ( " mm )
12:59 am 00:59 Partly Cloudy 62 16.7 53 11.7 73 73 SW 12 19 30.11 1020 10 16 0.00 0.00
1:59 am 01:59 Mostly Clear 62 16.7 54 12.2 75 75 SW 16 26 30.10 1019 10 16 0.00 0.00
2:59 am 02:59 Mostly Clear 62 16.7 54 12.2 75 75 WSW 8 13 30.12 1020 10 16 0.00 0.00
3:59 am 03:59 Mostly Cloudy 62 16.7 55 12.8 78 78 WSW 10 17 30.11 1020 10 16 0.00 0.00
4:59 am 04:59 Partly Cloudy 62 16.7 56 13.3 80 80 SW 10 17 30.12 1020 10 16 0.00 0.00
5:59 am 05:59 Partly Cloudy 62 16.7 56 13.3 80 80 SW 10 17 30.13 1020 10 16 0.00 0.00
6:59 am 06:59 Mostly Cloudy 61 16.1 56 13.3 84 84 SW 8 13 30.15 1021 10 16 0.00 0.00
7:59 am 07:59 Mostly Cloudy 62 16.7 56 13.3 80 80 WSW 9 15 30.17 1022 10 16 0.00 0.00
8:59 am 08:59 Mostly Cloudy 64 17.8 56 13.3 75 75 WSW 10 17 30.19 1022 10 16 0.00 0.00
9:59 am 09:59 Mostly Cloudy 64 17.8 56 13.3 75 75 W 9 15 30.20 1023 10 16 0.00 0.00
10:59 am 10:59 Mostly Cloudy 67 19.4 57 13.9 71 71 WSW 8 13 30.18 1022 10 16 0.00 0.00
11:59 am 11:59 Mostly Cloudy 69 20.6 57 13.9 66 66 WSW 9 15 30.16 1021 10 16 0.00 0.00
12:59 pm 12:59 Mostly Cloudy 71 21.7 56 13.3 59 59 W 9 15 30.14 1021 10 16 0.00 0.00
1:59 pm 13:59 Mostly Cloudy 70 21.1 56 13.3 61 61 N 6 9 30.14 1021 10 16 0.00 0.00
2:59 pm 14:59 Mostly Cloudy 66 18.9 55 12.8 68 68 NE 7 11 30.14 1021 10 16 0.00 0.00
3:59 pm 15:59 Mostly Cloudy 63 17.2 54 12.2 73 73 E 5 7 30.15 1021 10 16 0.00 0.00
4:59 pm 16:59 Clear 62 16.7 55 12.8 78 78 E 6 9 30.16 1021 9 14 0.00 0.00
5:59 pm 17:59 Mostly Cloudy 59 15 54 12.2 83 83 Calm 30.17 1022 9 14 0.00 0.00
6:59 pm 18:59 Mostly Cloudy 58 14.4 54 12.2 87 87 SE 3 6 30.18 1022 9 14 0.00 0.00
7:59 pm 19:59 Mostly Cloudy 58 14.4 53 11.7 84 84 Calm 30.18 1022 10 16 0.00 0.00
8:59 pm 20:59 Mostly Cloudy 59 15 53 11.7 81 81 SE 3 6 30.18 1022 9 14 0.00 0.00
9:59 pm 21:59 Mostly Cloudy 56 13.3 52 11.1 87 87 Calm 30.17 1022 9 14 0.00 0.00
10:59 pm 22:59 Partly Cloudy with Mist and Fog 54 12.2 51 10.6 90 90 Calm 30.18 1022 5 8 0.00 0.00
11:59 pm 23:59 Mostly Cloudy 58 14.4 54 12.2 87 87 SSE 8 13 30.15 1021 7 11 0.00 0.00

Powered by AerisWeather